Location: Banksville Park
(38.5557°N, 75.1182°W)
Time: 02:18:47
(UTC+00:00)

Meteor 1-15 Rocket - Pass Details

Date: 19 September 2020
Orbit: 840 x 907 km, 81.2° (Epoch: 30 October)

Event Time Altitude Azimuth Distance (km) Brightness Sun altitude
Rises 00:55:29 0° 184° (S) 3,384 7.2 -22.3°
Reaches altitude 10° 00:57:52 10° 183° (S) 2,458 6.4 -22.7°
Maximum altitude 01:03:26 80° 98° (E) 870 4.1 -23.8°
Drops below altitude 10° 01:09:08 10° 11° (NNE) 2,511 6.8 -24.8°
Sets 01:11:35 0° 11° (N) 3,462 7.6 -25.2°
